| time (UTC) | temp F | wind direction | speed knots | gust knots | rain 1hr in | rain 24hr in | rain mn in | humidity % | barometer mb |
| 20260503021505 | 32 | 285 | 3.5 | 12.2 | 0.00 | 0.00 | 0.00 | 11 | 995.7 |
| 20260503021005 | 32 | 268 | 4.3 | 11.3 | 0.00 | 0.00 | 0.00 | 11 | 995.5 |
| 20260503020903 | 32 | 266 | 6.1 | 11.3 | 0.00 | 0.00 | 0.00 | 11 | 995.5 |
| 20260503020711 | 32 | 274 | 3.5 | 7.8 | 0.00 | 0.00 | 0.00 | 11 | 995.7 |
| 20260503020505 | 32 | 274 | 3.5 | 7.8 | 0.00 | 0.00 | 0.00 | 11 | 995.5 |
| 20260503020005 | 32 | 284 | 3.5 | 9.6 | 0.00 | 0.00 | 0.00 | 11 | 995.5 |
| 20260503020003 | 32 | 283 | 3.5 | 9.6 | 0.00 | 0.00 | 0.00 | 11 | 995.5 |
| 20260503015505 | 32 | 290 | 2.6 | 10.4 | 0.00 | 0.00 | 0.00 | 11 | 995.4 |
| 20260503015403 | 32 | 293 | 3.5 | 10.4 | 0.00 | 0.00 | 0.00 | 11 | 995.3 |
| 20260503015005 | 32 | 279 | 1.7 | 10.4 | 0.00 | 0.00 | 0.00 | 11 | 995.4 |
| 20260503014711 | 31 | 270 | 4.3 | 9.6 | 0.00 | 0.00 | 0.00 | 11 | 995.4 |
| 20260503014505 | 31 | 252 | 2.6 | 9.6 | 0.00 | 0.00 | 0.00 | 11 | 995.3 |
| 20260503014503 | 31 | 258 | 3.5 | 9.6 | 0.00 | 0.00 | 0.00 | 11 | 995.3 |
| 20260503014005 | 30 | 237 | 4.3 | 9.6 | 0.00 | 0.00 | 0.00 | 11 | 995.3 |
| 20260503013603 | 30 | 214 | 0.0 | 3.5 | 0.00 | 0.00 | 0.00 | 11 | 995.3 |
| 20260503013505 | 30 | 214 | 0.9 | 3.5 | 0.00 | 0.00 | 0.00 | 11 | 995.3 |
| 20260503013005 | 30 | 210 | 1.7 | 3.5 | 0.00 | 0.00 | 0.00 | 11 | 995.2 |
| 20260503012713 | 30 | 225 | 0.0 | 2.6 | 0.00 | 0.00 | 0.00 | 11 | 995.4 |
| 20260503012703 | 30 | 225 | 0.0 | 2.6 | 0.00 | 0.00 | 0.00 | 11 | 995.4 |
| 20260503012505 | 30 | 229 | 0.9 | 2.6 | 0.00 | 0.00 | 0.00 | 11 | 995.4 |
| 20260503012005 | 31 | 242 | 0.9 | 2.6 | 0.00 | 0.00 | 0.00 | 11 | 995.3 |
| 20260503011803 | 30 | 249 | 1.7 | 2.6 | 0.00 | 0.00 | 0.00 | 11 | 995.4 |
| 20260503011505 | 30 | 262 | 1.7 | 2.6 | 0.00 | 0.00 | 0.00 | 11 | 995.2 |
| 20260503011007 | 30 | 270 | 0.9 | 2.6 | 0.00 | 0.00 | 0.00 | 11 | 995.2 |
| 20260503010903 | 30 | 270 | 0.0 | 1.7 | 0.00 | 0.00 | 0.00 | 11 | 995.4 |
| 20260503010713 | 30 | 252 | 0.0 | 1.7 | 0.00 | 0.00 | 0.00 | 11 | 995.3 |
| 20260503010507 | 30 | 233 | 0.0 | 1.7 | 0.00 | 0.00 | 0.00 | 11 | 995.3 |
| 20260503010005 | 30 | 309 | 0.0 | 3.5 | 0.00 | 0.00 | 0.00 | 11 | 995.1 |
| 20260503010003 | 30 | 299 | 0.0 | 3.5 | 0.00 | 0.00 | 0.00 | 11 | 995.2 |
| 20260503005403 | 29 | 17 | 1.7 | 3.5 | 0.00 | 0.00 | 0.00 | 11 | 995.1 |
| 20260503005351 | 29 | 45 | 1.7 | 3.5 | 0.00 | 0.00 | 0.00 | 11 | 995.2 |
| 20260503004851 | 29 | 148 | 0.9 | 1.7 | 0.00 | 0.00 | 0.00 | 11 | 995.2 |
| 20260503004713 | 29 | 158 | 0.0 | 1.7 | 0.00 | 0.00 | 0.00 | 11 | 995.1 |
| 20260503004503 | 29 | 179 | 0.0 | 1.7 | 0.00 | 0.00 | 0.00 | 11 | 995.1 |
| 20260503004351 | 29 | 205 | 0.9 | 1.7 | 0.00 | 0.00 | 0.00 | 11 | 995.0 |
| 20260503003852 | 30 | 217 | 0.0 | 1.7 | 0.00 | 0.00 | 0.00 | 11 | 995.0 |
| 20260503003603 | 30 | 211 | 0.0 | 2.6 | 0.00 | 0.00 | 0.00 | 11 | 995.0 |
| 20260503003351 | 30 | 213 | 0.0 | 2.6 | 0.00 | 0.00 | 0.00 | 11 | 995.1 |
| 20260503002851 | 30 | 223 | 0.9 | 3.5 | 0.00 | 0.00 | 0.00 | 11 | 995.1 |
| 20260503002713 | 30 | 227 | 1.7 | 3.5 | 0.00 | 0.00 | 0.00 | 11 | 995.1 |
| 20260503002703 | 30 | 227 | 1.7 | 3.5 | 0.00 | 0.00 | 0.00 | 11 | 995.1 |
| 20260503002351 | 30 | 221 | 1.7 | 3.5 | 0.00 | 0.00 | 0.00 | 11 | 995.1 |
| 20260503001851 | 30 | 210 | 1.7 | 3.5 | 0.00 | 0.00 | 0.00 | 11 | 995.0 |
| 20260503001803 | 30 | 209 | 1.7 | 3.5 | 0.00 | 0.00 | 0.00 | 11 | 995.0 |
| 20260503001351 | 30 | 219 | 1.7 | 3.5 | 0.00 | 0.00 | 0.00 | 11 | 995.0 |
| 20260503000903 | 30 | 224 | 0.9 | 3.5 | 0.00 | 0.00 | 0.00 | 11 | 995.0 |
| 20260503000851 | 30 | 224 | 0.0 | 3.5 | 0.00 | 0.00 | 0.00 | 11 | 995.0 |
| 20260503000713 | 30 | 224 | 0.9 | 4.3 | 0.00 | 0.00 | 0.00 | 11 | 994.9 |
| 20260503000351 | 30 | 211 | 0.9 | 4.3 | 0.00 | 0.00 | 0.00 | 11 | 994.9 |
| 20260503000003 | 30 | 212 | 0.9 | 4.3 | 0.00 | 0.00 | 0.00 | 11 | 994.8 |
| 20260502235851 | 30 | 212 | 2.6 | 4.3 | 0.00 | 0.00 | 0.00 | 11 | 994.9 |
| 20260502235403 | 31 | 211 | 0.9 | 4.3 | 0.00 | 0.00 | 0.00 | 11 | 994.9 |
| 20260502235351 | 31 | 211 | 1.7 | 4.3 | 0.00 | 0.00 | 0.00 | 11 | 994.9 |
| 20260502234851 | 31 | 196 | 1.7 | 3.5 | 0.00 | 0.00 | 0.00 | 11 | 994.7 |
| 20260502234713 | 31 | 194 | 0.9 | 3.5 | 0.00 | 0.00 | 0.00 | 11 | 994.9 |
| 20260502234503 | 31 | 195 | 0.9 | 6.1 | 0.00 | 0.00 | 0.00 | 11 | 994.9 |
| 20260502234351 | 31 | 201 | 1.7 | 6.1 | 0.00 | 0.00 | 0.00 | 11 | 994.9 |
| 20260502233851 | 31 | 203 | 1.7 | 6.1 | 0.00 | 0.00 | 0.00 | 11 | 994.9 |
| 20260502233603 | 31 | 207 | 2.6 | 6.1 | 0.00 | 0.00 | 0.00 | 11 | 994.7 |
| 20260502233351 | 31 | 204 | 1.7 | 5.2 | 0.00 | 0.00 | 0.00 | 11 | 994.9 |
| 20260502232851 | 31 | 204 | 1.7 | 4.3 | 0.00 | 0.00 | 0.00 | 11 | 995.0 |
| 20260502232713 | 31 | 208 | 1.7 | 4.3 | 0.00 | 0.00 | 0.00 | 11 | 995.0 |
| 20260502232703 | 31 | 208 | 1.7 | 4.3 | 0.00 | 0.00 | 0.00 | 11 | 995.0 |
| 20260502232351 | 31 | 210 | 0.9 | 5.2 | 0.00 | 0.00 | 0.00 | 11 | 994.9 |
| 20260502231851 | 31 | 209 | 0.9 | 5.2 | 0.00 | 0.00 | 0.00 | 11 | 995.0 |
| 20260502231803 | 31 | 209 | 0.9 | 5.2 | 0.00 | 0.00 | 0.00 | 11 | 995.0 |
| 20260502231351 | 31 | 193 | 1.7 | 4.3 | 0.00 | 0.00 | 0.00 | 11 | 995.0 |
| 20260502230903 | 32 | 180 | 1.7 | 4.3 | 0.00 | 0.00 | 0.00 | 11 | 995.0 |
| 20260502230852 | 31 | 184 | 3.5 | 4.3 | 0.00 | 0.00 | 0.00 | 11 | 995.0 |
| 20260502230712 | 31 | 189 | 1.7 | 4.3 | 0.00 | 0.00 | 0.00 | 11 | 995.0 |
| 20260502230351 | 31 | 193 | 1.7 | 6.1 | 0.00 | 0.00 | 0.00 | 11 | 994.9 |
| 20260502230003 | 31 | 205 | 1.7 | 6.1 | 0.00 | 0.00 | 0.00 | 11 | 995.0 |
| 20260502225851 | 31 | 203 | 2.6 | 6.1 | 0.00 | 0.00 | 0.00 | 11 | 995.1 |
| 20260502225403 | 32 | 207 | 1.7 | 6.1 | 0.00 | 0.00 | 0.00 | 11 | 994.9 |
| 20260502225351 | 32 | 210 | 2.6 | 6.1 | 0.00 | 0.00 | 0.00 | 11 | 995.1 |
| 20260502224851 | 32 | 213 | 2.6 | 7.0 | 0.00 | 0.00 | 0.00 | 11 | 995.1 |
| 20260502224713 | 32 | 214 | 1.7 | 7.0 | 0.00 | 0.00 | 0.00 | 11 | 995.0 |
| 20260502224503 | 32 | 216 | 1.7 | 7.0 | 0.00 | 0.00 | 0.00 | 11 | 995.0 |
| 20260502224351 | 32 | 215 | 1.7 | 7.0 | 0.00 | 0.00 | 0.00 | 11 | 994.9 |
| 20260502223851 | 32 | 218 | 2.6 | 4.3 | 0.00 | 0.00 | 0.00 | 11 | 995.2 |
| 20260502223603 | 32 | 219 | 1.7 | 4.3 | 0.00 | 0.00 | 0.00 | 11 | 995.1 |
| 20260502223351 | 32 | 216 | 1.7 | 4.3 | 0.00 | 0.00 | 0.00 | 11 | 995.2 |
| 20260502222851 | 31 | 208 | 1.7 | 4.3 | 0.00 | 0.00 | 0.00 | 11 | 995.1 |
| 20260502222713 | 31 | 207 | 0.9 | 4.3 | 0.00 | 0.00 | 0.00 | 11 | 995.3 |
| 20260502222703 | 31 | 207 | 0.9 | 4.3 | 0.00 | 0.00 | 0.00 | 11 | 995.3 |
| 20260502222351 | 31 | 203 | 0.9 | 4.3 | 0.00 | 0.00 | 0.00 | 11 | 995.2 |
| 20260502221851 | 31 | 203 | 1.7 | 3.5 | 0.00 | 0.00 | 0.00 | 11 | 995.2 |
| 20260502221803 | 31 | 203 | 1.7 | 3.5 | 0.00 | 0.00 | 0.00 | 11 | 995.2 |
| 20260502221351 | 31 | 218 | 1.7 | 3.5 | 0.00 | 0.00 | 0.00 | 11 | 995.3 |
| 20260502220903 | 32 | 223 | 0.0 | 3.5 | 0.00 | 0.00 | 0.00 | 11 | 995.2 |
| 20260502220851 | 32 | 224 | 0.9 | 3.5 | 0.00 | 0.00 | 0.00 | 11 | 995.1 |
| 20260502220712 | 32 | 228 | 1.7 | 3.5 | 0.00 | 0.00 | 0.00 | 11 | 995.1 |
| 20260502220351 | 32 | 220 | 1.7 | 3.5 | 0.00 | 0.00 | 0.00 | 11 | 995.1 |
| 20260502220003 | 32 | 213 | 1.7 | 3.5 | 0.00 | 0.00 | 0.00 | 11 | 995.2 |
| 20260502215850 | 32 | 209 | 0.9 | 3.5 | 0.00 | 0.00 | 0.00 | 11 | 995.2 |
| 20260502215403 | 32 | 205 | 0.0 | 3.5 | 0.00 | 0.00 | 0.00 | 11 | 995.3 |
| 20260502215350 | 32 | 209 | 0.9 | 3.5 | 0.00 | 0.00 | 0.00 | 11 | 995.3 |
| 20260502214851 | 32 | 201 | 0.9 | 4.3 | 0.00 | 0.00 | 0.00 | 11 | 995.3 |
| 20260502214712 | 32 | 203 | 0.9 | 4.3 | 0.00 | 0.00 | 0.00 | 11 | 995.3 |
| 20260502214503 | 33 | 203 | 0.9 | 4.3 | 0.00 | 0.00 | 0.00 | 11 | 995.4 |
| 20260502214351 | 33 | 208 | 0.9 | 5.2 | 0.00 | 0.00 | 0.00 | 11 | 995.4 |
| 20260502213744 | 33 | 215 | 1.7 | 5.2 | 0.00 | 0.00 | 0.00 | 11 | 995.2 |
| 20260502213603 | 33 | 217 | 2.6 | 5.2 | 0.00 | 0.00 | 0.00 | 11 | 995.1 |
| 20260502213244 | 33 | 213 | 1.7 | 4.3 | 0.00 | 0.00 | 0.00 | 11 | 995.2 |
| 20260502212744 | 33 | 214 | 1.7 | 4.3 | 0.00 | 0.00 | 0.00 | 11 | 995.2 |
| 20260502212712 | 33 | 214 | 1.7 | 4.3 | 0.00 | 0.00 | 0.00 | 11 | 995.2 |
| 20260502212703 | 33 | 214 | 1.7 | 4.3 | 0.00 | 0.00 | 0.00 | 11 | 995.2 |
| 20260502212244 | 33 | 225 | 2.6 | 4.3 | 0.00 | 0.00 | 0.00 | 11 | 995.3 |
| 20260502211803 | 33 | 224 | 1.7 | 3.5 | 0.00 | 0.00 | 0.00 | 11 | 995.2 |
| 20260502211743 | 33 | 224 | 1.7 | 3.5 | 0.00 | 0.00 | 0.00 | 11 | 995.2 |
| 20260502211243 | 34 | 219 | 0.9 | 3.5 | 0.00 | 0.00 | 0.00 | 11 | 995.4 |
| 20260502210903 | 34 | 230 | 1.7 | 3.5 | 0.00 | 0.00 | 0.00 | 11 | 995.4 |
| 20260502210743 | 34 | 240 | 0.9 | 3.5 | 0.00 | 0.00 | 0.00 | 11 | 995.2 |
| 20260502210711 | 34 | 240 | 0.9 | 3.5 | 0.00 | 0.00 | 0.00 | 11 | 995.2 |
| 20260502210243 | 34 | 279 | 0.9 | 5.2 | 0.00 | 0.00 | 0.00 | 11 | 995.4 |
| 20260502210003 | 34 | 288 | 0.9 | 5.2 | 0.00 | 0.00 | 0.00 | 11 | 995.3 |
| 20260502205743 | 35 | 266 | 1.7 | 5.2 | 0.00 | 0.00 | 0.00 | 11 | 995.2 |
| 20260502205403 | 35 | 242 | 1.7 | 5.2 | 0.00 | 0.00 | 0.00 | 11 | 995.2 |
| 20260502205243 | 35 | 233 | 1.7 | 5.2 | 0.00 | 0.00 | 0.00 | 11 | 995.3 |
| 20260502204743 | 35 | 223 | 2.6 | 6.1 | 0.00 | 0.00 | 0.00 | 11 | 995.3 |
| 20260502204711 | 35 | 223 | 2.6 | 6.1 | 0.00 | 0.00 | 0.00 | 11 | 995.3 |
| 20260502204503 | 35 | 221 | 1.7 | 6.1 | 0.00 | 0.00 | 0.00 | 11 | 995.3 |
| 20260502204243 | 35 | 221 | 1.7 | 6.1 | 0.00 | 0.00 | 0.00 | 11 | 995.2 |
| 20260502203743 | 35 | 246 | 3.5 | 7.0 | 0.00 | 0.00 | 0.00 | 11 | 995.4 |
| 20260502203603 | 35 | 255 | 3.5 | 7.0 | 0.00 | 0.00 | 0.00 | 11 | 995.3 |
| 20260502203243 | 36 | 278 | 2.6 | 7.8 | 0.00 | 0.00 | 0.00 | 11 | 995.3 |
| 20260502202743 | 36 | 261 | 4.3 | 9.6 | 0.00 | 0.00 | 0.00 | 11 | 995.4 |
| 20260502202711 | 36 | 261 | 4.3 | 9.6 | 0.00 | 0.00 | 0.00 | 11 | 995.4 |
| 20260502202703 | 36 | 257 | 4.3 | 9.6 | 0.00 | 0.00 | 0.00 | 11 | 995.4 |
| 20260502202243 | 36 | 233 | 3.5 | 9.6 | 0.00 | 0.00 | 0.00 | 11 | 995.3 |
| 20260502201803 | 36 | 216 | 4.3 | 7.8 | 0.00 | 0.00 | 0.00 | 11 | 995.1 |
| 20260502201743 | 36 | 218 | 2.6 | 7.8 | 0.00 | 0.00 | 0.00 | 11 | 995.2 |
| 20260502201243 | 36 | 224 | 1.7 | 7.0 | 0.00 | 0.00 | 0.00 | 11 | 995.3 |
| 20260502200903 | 36 | 232 | 1.7 | 4.3 | 0.00 | 0.00 | 0.00 | 11 | 995.3 |
| 20260502200743 | 36 | 239 | 1.7 | 6.1 | 0.00 | 0.00 | 0.00 | 11 | 995.2 |
| 20260502200711 | 36 | 239 | 1.7 | 6.1 | 0.00 | 0.00 | 0.00 | 11 | 995.2 |
| 20260502200243 | 36 | 223 | 1.7 | 7.0 | 0.00 | 0.00 | 0.00 | 11 | 995.1 |
| 20260502200003 | 36 | 215 | 1.7 | 7.0 | 0.00 | 0.00 | 0.00 | 11 | 995.1 |
| 20260502195743 | 36 | 205 | 1.7 | 7.0 | 0.00 | 0.00 | 0.00 | 11 | 995.1 |
| 20260502195403 | 36 | 203 | 1.7 | 6.1 | 0.00 | 0.00 | 0.00 | 11 | 995.2 |
| 20260502195243 | 36 | 209 | 2.6 | 6.1 | 0.00 | 0.00 | 0.00 | 11 | 995.2 |
| 20260502194743 | 36 | 216 | 0.9 | 3.5 | 0.00 | 0.00 | 0.00 | 11 | 995.2 |
| 20260502194711 | 36 | 216 | 0.9 | 3.5 | 0.00 | 0.00 | 0.00 | 11 | 995.2 |
| 20260502194503 | 36 | 216 | 1.7 | 5.2 | 0.00 | 0.00 | 0.00 | 11 | 995.2 |
| 20260502194243 | 37 | 220 | 1.7 | 7.0 | 0.00 | 0.00 | 0.00 | 11 | 995.2 |
| 20260502193743 | 37 | 220 | 1.7 | 7.0 | 0.00 | 0.00 | 0.00 | 11 | 995.2 |
| 20260502193603 | 37 | 223 | 1.7 | 7.0 | 0.00 | 0.00 | 0.00 | 11 | 995.3 |
| 20260502193244 | 37 | 220 | 2.6 | 6.1 | 0.00 | 0.00 | 0.00 | 11 | 995.3 |
| 20260502192744 | 37 | 220 | 1.7 | 6.1 | 0.00 | 0.00 | 0.00 | 11 | 995.3 |
| 20260502192712 | 37 | 220 | 1.7 | 6.1 | 0.00 | 0.00 | 0.00 | 11 | 995.3 |
| 20260502192703 | 37 | 220 | 1.7 | 6.1 | 0.00 | 0.00 | 0.00 | 11 | 995.3 |
| 20260502192244 | 38 | 237 | 1.7 | 7.0 | 0.00 | 0.00 | 0.00 | 11 | 995.2 |
| 20260502191803 | 38 | 242 | 1.7 | 7.0 | 0.00 | 0.00 | 0.00 | 11 | 995.2 |
| 20260502191744 | 38 | 246 | 2.6 | 7.0 | 0.00 | 0.00 | 0.00 | 11 | 995.1 |
| 20260502191244 | 38 | 284 | 1.7 | 7.0 | 0.00 | 0.00 | 0.00 | 11 | 995.0 |
| 20260502190903 | 38 | 305 | 1.7 | 8.7 | 0.00 | 0.00 | 0.00 | 11 | 995.1 |
| 20260502190744 | 38 | 310 | 1.7 | 8.7 | 0.00 | 0.00 | 0.00 | 11 | 995.1 |
| 20260502190712 | 38 | 310 | 1.7 | 8.7 | 0.00 | 0.00 | 0.00 | 11 | 995.1 |
| 20260502190244 | 39 | 291 | 3.5 | 8.7 | 0.00 | 0.00 | 0.00 | 11 | 995.0 |
| 20260502190003 | 39 | 271 | 3.5 | 8.7 | 0.00 | 0.00 | 0.00 | 11 | 995.0 |
| 20260502185744 | 39 | 239 | 1.7 | 6.1 | 0.00 | 0.00 | 0.00 | 11 | 995.0 |
| 20260502185403 | 39 | 247 | 3.5 | 7.0 | 0.00 | 0.00 | 0.00 | 11 | 995.0 |
| 20260502185244 | 39 | 243 | 0.9 | 7.0 | 0.00 | 0.00 | 0.00 | 11 | 995.0 |
| 20260502184744 | 40 | 262 | 2.6 | 9.6 | 0.00 | 0.00 | 0.00 | 11 | 995.0 |
| 20260502184712 | 40 | 262 | 2.6 | 9.6 | 0.00 | 0.00 | 0.00 | 11 | 995.0 |
| 20260502184503 | 40 | 261 | 4.3 | 9.6 | 0.00 | 0.00 | 0.00 | 11 | 995.0 |
| 20260502184244 | 41 | 274 | 2.6 | 9.6 | 0.00 | 0.00 | 0.00 | 11 | 995.0 |
| 20260502183744 | 42 | 275 | 1.7 | 8.7 | 0.00 | 0.00 | 0.00 | 11 | 995.1 |
| 20260502183603 | 42 | 277 | 4.3 | 8.7 | 0.00 | 0.00 | 0.00 | 11 | 994.9 |
| 20260502183244 | 42 | 282 | 2.6 | 8.7 | 0.00 | 0.00 | 0.00 | 11 | 994.9 |
| 20260502182712 | 42 | 281 | 3.5 | 8.7 | 0.00 | 0.00 | 0.00 | 11 | 994.9 |
| 20260502182703 | 42 | 283 | 3.5 | 8.7 | 0.00 | 0.00 | 0.00 | 11 | 994.9 |
| 20260502182632 | 42 | 287 | 6.1 | 8.7 | 0.00 | 0.00 | 0.00 | 11 | 995.0 |
| 20260502182132 | 42 | 251 | 4.3 | 8.7 | 0.00 | 0.00 | 0.00 | 11 | 994.9 |
| 20260502181803 | 42 | 247 | 1.7 | 11.3 | 0.00 | 0.00 | 0.00 | 11 | 994.8 |
| 20260502181632 | 42 | 239 | 4.3 | 11.3 | 0.00 | 0.00 | 0.00 | 11 | 995.0 |
| 20260502181132 | 42 | 250 | 3.5 | 11.3 | 0.00 | 0.00 | 0.00 | 11 | 994.9 |
| 20260502180903 | 43 | 244 | 3.5 | 11.3 | 0.00 | 0.00 | 0.00 | 11 | 994.8 |
| 20260502180712 | 43 | 244 | 1.7 | 10.4 | 0.00 | 0.00 | 0.00 | 11 | 994.9 |
| 20260502180632 | 43 | 249 | 3.5 | 10.4 | 0.00 | 0.00 | 0.00 | 11 | 994.9 |
| 20260502180132 | 43 | 274 | 3.5 | 14.8 | 0.00 | 0.00 | 0.00 | 11 | 994.6 |
| 20260502170133 | 44 | 272 | 3.5 | 11.3 | 0.00 | 0.00 | 0.00 | 11 | 995.0 |
| 20260502164133 | 45 | 271 | 4.3 | 11.3 | 0.00 | 0.00 | 0.00 | 11 | 995.0 |
| 20260502163633 | 45 | 258 | 6.1 | 13.0 | 0.00 | 0.00 | 0.00 | 11 | 994.9 |
| 20260502163603 | 45 | 262 | 6.1 | 13.0 | 0.00 | 0.00 | 0.00 | 11 | 994.9 |
| 20260502163133 | 45 | 269 | 4.3 | 13.0 | 0.00 | 0.00 | 0.00 | 11 | 995.1 |
| 20260502162711 | 45 | 265 | 3.5 | 13.0 | 0.00 | 0.00 | 0.00 | 11 | 995.0 |
| 20260502162703 | 45 | 265 | 3.5 | 13.0 | 0.00 | 0.00 | 0.00 | 11 | 995.0 |
| 20260502162633 | 45 | 271 | 6.1 | 13.9 | 0.00 | 0.00 | 0.00 | 11 | 994.8 |
| 20260502162133 | 45 | 271 | 6.1 | 13.9 | 0.00 | 0.00 | 0.00 | 11 | 995.0 |
| 20260502161803 | 44 | 268 | 3.5 | 13.9 | 0.00 | 0.00 | 0.00 | 11 | 995.0 |
| 20260502161633 | 45 | 265 | 6.1 | 13.9 | 0.00 | 0.00 | 0.00 | 11 | 995.0 |
| 20260502161133 | 45 | 264 | 2.6 | 11.3 | 0.00 | 0.00 | 0.00 | 11 | 995.1 |
| 20260502160903 | 45 | 268 | 5.2 | 11.3 | 0.00 | 0.00 | 0.00 | 11 | 995.0 |
| 20260502160711 | 45 | 267 | 7.0 | 11.3 | 0.00 | 0.00 | 0.00 | 11 | 995.0 |
| 20260502160632 | 45 | 266 | 7.0 | 11.3 | 0.00 | 0.00 | 0.00 | 11 | 995.1 |
| 20260502160132 | 45 | 288 | 7.0 | 13.9 | 0.00 | 0.00 | 0.00 | 11 | 994.9 |
| 20260502152132 | 45 | 297 | 7.0 | 12.2 | 0.00 | 0.00 | 0.00 | 11 | 995.0 |
| 20260502151803 | 46 | 288 | 5.2 | 14.8 | 0.00 | 0.00 | 0.00 | 11 | 995.2 |
| 20260502151632 | 46 | 254 | 3.5 | 14.8 | 0.00 | 0.00 | 0.00 | 11 | 995.0 |
| 20260502151132 | 46 | 227 | 3.5 | 14.8 | 0.00 | 0.00 | 0.00 | 11 | 995.0 |
| 20260502150903 | 47 | 231 | 5.2 | 14.8 | 0.00 | 0.00 | 0.00 | 11 | 995.0 |
| 20260502150712 | 46 | 233 | 7.0 | 14.8 | 0.00 | 0.00 | 0.00 | 11 | 995.1 |
| 20260502150632 | 46 | 237 | 7.0 | 14.8 | 0.00 | 0.00 | 0.00 | 11 | 995.1 |
| 20260502150132 | 46 | 251 | 7.0 | 14.8 | 0.00 | 0.00 | 0.00 | 11 | 995.1 |
| 20260502130711 | 47 | 272 | 7.0 | 13.0 | 0.00 | 0.00 | 0.00 | 11 | 994.9 |
| 20260502130633 | 47 | 269 | 7.0 | 13.9 | 0.00 | 0.00 | 0.00 | 11 | 994.9 |
| 20260502130133 | 47 | 287 | 7.0 | 18.2 | 0.00 | 0.00 | 0.00 | 11 | 994.9 |
| 20260502123632 | 46 | 336 | 4.3 | 18.2 | 0.00 | 0.00 | 0.00 | 11 | 994.6 |
| 20260502123603 | 46 | 336 | 4.3 | 18.2 | 0.00 | 0.00 | 0.00 | 11 | 994.6 |
| 20260502123132 | 45 | 354 | 7.0 | 18.2 | 0.00 | 0.00 | 0.00 | 11 | 994.8 |
| 20260502122712 | 45 | 352 | 9.6 | 18.2 | 0.00 | 0.00 | 0.00 | 11 | 994.6 |
| 20260502122703 | 45 | 352 | 9.6 | 18.2 | 0.00 | 0.00 | 0.00 | 11 | 994.6 |
| 20260502122632 | 45 | 356 | 11.3 | 18.2 | 0.00 | 0.00 | 0.00 | 11 | 994.8 |
| 20260502122132 | 46 | 353 | 7.8 | 14.8 | 0.00 | 0.00 | 0.00 | 11 | 994.7 |
| 20260502121803 | 46 | 355 | 8.7 | 15.6 | 0.00 | 0.00 | 0.00 | 11 | 994.7 |
| 20260502121632 | 46 | 344 | 8.7 | 15.6 | 0.00 | 0.00 | 0.00 | 11 | 994.7 |
| 20260502121132 | 46 | 342 | 5.2 | 15.6 | 0.00 | 0.00 | 0.00 | 11 | 994.6 |
| 20260502120904 | 46 | 337 | 10.4 | 15.6 | 0.00 | 0.00 | 0.00 | 11 | 994.7 |
| 20260502120712 | 47 | 335 | 7.0 | 13.0 | 0.00 | 0.00 | 0.00 | 11 | 994.5 |
| 20260502120632 | 47 | 331 | 6.1 | 16.5 | 0.00 | 0.00 | 0.00 | 11 | 994.5 |
| 20260502120132 | 49 | 305 | 5.2 | 16.5 | 0.00 | 0.00 | 0.00 | 11 | 994.5 |
| 20260502115632 | 48 | 304 | 7.0 | 16.5 | 0.00 | 0.00 | 0.00 | 11 | 994.5 |
| 20260502115403 | 48 | 304 | 3.5 | 14.8 | 0.00 | 0.00 | 0.00 | 11 | 994.6 |
| 20260502115132 | 49 | 308 | 6.1 | 14.8 | 0.00 | 0.00 | 0.00 | 11 | 994.6 |
| 20260502114712 | 48 | 327 | 7.8 | 14.8 | 0.00 | 0.00 | 0.00 | 11 | 994.4 |
| 20260502114632 | 48 | 336 | 5.2 | 14.8 | 0.00 | 0.00 | 0.00 | 11 | 994.3 |
| 20260502114503 | 47 | 341 | 5.2 | 13.9 | 0.00 | 0.00 | 0.00 | 11 | 994.3 |
| 20260502114132 | 47 | 349 | 5.2 | 13.9 | 0.00 | 0.00 | 0.00 | 11 | 994.3 |
| 20260502113632 | 47 | 344 | 5.2 | 13.9 | 0.00 | 0.00 | 0.00 | 11 | 994.4 |
| 20260502113603 | 47 | 344 | 5.2 | 13.9 | 0.00 | 0.00 | 0.00 | 11 | 994.4 |
| 20260502113132 | 48 | 340 | 7.8 | 13.0 | 0.00 | 0.00 | 0.00 | 11 | 994.5 |
| 20260502112712 | 48 | 322 | 6.1 | 14.8 | 0.00 | 0.00 | 0.00 | 11 | 994.4 |
| 20260502112703 | 48 | 322 | 6.1 | 14.8 | 0.00 | 0.00 | 0.00 | 11 | 994.4 |
| 20260502112632 | 47 | 322 | 6.1 | 14.8 | 0.00 | 0.00 | 0.00 | 11 | 994.5 |
| 20260502112132 | 48 | 304 | 6.1 | 18.2 | 0.00 | 0.00 | 0.00 | 11 | 994.6 |
| 20260502111803 | 48 | 279 | 6.1 | 18.2 | 0.00 | 0.00 | 0.00 | 11 | 994.6 |
| 20260502111633 | 48 | 257 | 3.5 | 18.2 | 0.00 | 0.00 | 0.00 | 11 | 994.6 |
| 20260502111132 | 49 | 222 | 7.8 | 18.2 | 0.00 | 0.00 | 0.00 | 11 | 994.6 |
| 20260502110903 | 49 | 212 | 11.3 | 18.2 | 0.00 | 0.00 | 0.00 | 11 | 994.4 |
| 20260502110712 | 49 | 221 | 10.4 | 18.2 | 0.00 | 0.00 | 0.00 | 11 | 994.3 |
| 20260502110632 | 49 | 218 | 6.1 | 18.2 | 0.00 | 0.00 | 0.00 | 11 | 994.3 |
| 20260502110133 | 49 | 251 | 4.3 | 20.0 | 0.00 | 0.00 | 0.00 | 11 | 994.3 |
| 20260502110004 | 49 | 258 | 4.3 | 20.0 | 0.00 | 0.00 | 0.00 | 11 | 994.4 |
| 20260502105632 | 49 | 254 | 7.8 | 20.0 | 0.00 | 0.00 | 0.00 | 11 | 994.4 |
| 20260502105403 | 50 | 243 | 11.3 | 20.0 | 0.00 | 0.00 | 0.00 | 11 | 994.3 |
| 20260502105132 | 50 | 237 | 6.1 | 18.2 | 0.00 | 0.00 | 0.00 | 11 | 994.2 |
| 20260502104712 | 50 | 260 | 10.4 | 18.2 | 0.00 | 0.00 | 0.00 | 11 | 994.3 |
| 20260502104632 | 50 | 272 | 7.8 | 15.6 | 0.00 | 0.00 | 0.00 | 11 | 994.3 |
| 20260502104503 | 50 | 287 | 3.5 | 14.8 | 0.00 | 0.00 | 0.00 | 11 | 994.3 |
| 20260502104134 | 48 | 309 | 6.1 | 14.8 | 0.00 | 0.00 | 0.00 | 11 | 994.3 |
| 20260502103632 | 46 | 326 | 7.0 | 13.0 | 0.00 | 0.00 | 0.00 | 11 | 994.0 |
| 20260502103603 | 46 | 326 | 7.0 | 13.0 | 0.00 | 0.00 | 0.00 | 11 | 994.0 |
| 20260502103536 | 46 | 326 | 7.0 | 9.6 | 0.00 | 0.00 | 0.00 | 11 | 994.2 |
| 20260502103036 | 46 | 349 | 3.5 | 12.2 | 0.00 | 0.00 | 0.00 | 11 | 994.0 |
| 20260502102712 | 46 | 345 | 6.1 | 12.2 | 0.00 | 0.00 | 0.00 | 11 | 994.1 |
| 20260502102703 | 46 | 345 | 6.1 | 12.2 | 0.00 | 0.00 | 0.00 | 11 | 994.1 |
| 20260502102538 | 46 | 344 | 5.2 | 12.2 | 0.00 | 0.00 | 0.00 | 11 | 994.2 |
| 20260502102038 | 47 | 283 | 8.7 | 14.8 | 0.00 | 0.00 | 0.00 | 11 | 994.4 |
| 20260502101803 | 47 | 269 | 6.1 | 14.8 | 0.00 | 0.00 | 0.00 | 11 | 994.3 |
| 20260502101536 | 48 | 253 | 5.2 | 14.8 | 0.00 | 0.00 | 0.00 | 11 | 994.3 |
| 20260502101038 | 50 | 231 | 6.1 | 13.9 | 0.00 | 0.00 | 0.00 | 11 | 994.1 |
| 20260502100903 | 50 | 224 | 3.5 | 13.9 | 0.00 | 0.00 | 0.00 | 11 | 994.2 |
| 20260502100712 | 50 | 220 | 6.1 | 14.8 | 0.00 | 0.00 | 0.00 | 11 | 994.3 |
| 20260502100538 | 49 | 230 | 3.5 | 15.6 | 0.00 | 0.00 | 0.00 | 11 | 994.2 |
| 20260502091037 | 47 | 263 | 2.6 | 9.6 | 0.00 | 0.00 | 0.00 | 11 | 994.1 |
| 20260502090903 | 47 | 261 | 3.5 | 9.6 | 0.00 | 0.00 | 0.00 | 11 | 993.9 |
| 20260502090713 | 47 | 255 | 4.3 | 12.2 | 0.00 | 0.00 | 0.00 | 11 | 993.9 |
| 20260502090537 | 47 | 243 | 3.5 | 12.2 | 0.00 | 0.00 | 0.00 | 11 | 993.9 |
| 20260502071323 | 48 | 221 | 7.0 | 14.8 | 0.00 | 0.00 | 0.00 | 11 | 993.7 |
| 20260502070903 | 48 | 220 | 1.7 | 14.8 | 0.00 | 0.00 | 0.00 | 11 | 993.6 |
| 20260502070823 | 48 | 218 | 3.5 | 14.8 | 0.00 | 0.00 | 0.00 | 11 | 993.6 |
| 20260502070713 | 48 | 218 | 4.3 | 14.8 | 0.00 | 0.00 | 0.00 | 11 | 993.7 |
| 20260502070323 | 48 | 222 | 4.3 | 9.6 | 0.00 | 0.00 | 0.00 | 11 | 993.6 |
| 20260502070003 | 48 | 226 | 3.5 | 11.3 | 0.00 | 0.00 | 0.00 | 11 | 993.4 |
| 20260502065823 | 48 | 225 | 3.5 | 11.3 | 0.00 | 0.00 | 0.00 | 11 | 993.3 |
| 20260502065403 | 48 | 226 | 3.5 | 11.3 | 0.00 | 0.00 | 0.00 | 11 | 993.4 |
| 20260502065323 | 48 | 225 | 3.5 | 11.3 | 0.00 | 0.00 | 0.00 | 11 | 993.5 |
| 20260502064823 | 48 | 230 | 4.3 | 10.4 | 0.00 | 0.00 | 0.00 | 11 | 993.3 |
| 20260502064713 | 48 | 224 | 5.2 | 10.4 | 0.00 | 0.00 | 0.00 | 11 | 993.3 |
| 20260502064503 | 48 | 224 | 4.3 | 10.4 | 0.00 | 0.00 | 0.00 | 11 | 993.2 |
| 20260502064323 | 48 | 222 | 3.5 | 10.4 | 0.00 | 0.00 | 0.00 | 11 | 993.3 |
| 20260502063823 | 47 | 229 | 6.1 | 10.4 | 0.00 | 0.00 | 0.00 | 11 | 993.4 |
| 20260502063603 | 47 | 228 | 3.5 | 12.2 | 0.00 | 0.00 | 0.00 | 11 | 993.4 |
| 20260502063323 | 47 | 228 | 3.5 | 12.2 | 0.00 | 0.00 | 0.00 | 11 | 993.3 |
| 20260502062823 | 47 | 224 | 4.3 | 18.2 | 0.00 | 0.00 | 0.00 | 11 | 993.4 |
| 20260502062713 | 47 | 219 | 7.0 | 18.2 | 0.00 | 0.00 | 0.00 | 11 | 993.4 |
| 20260502062703 | 47 | 219 | 7.0 | 18.2 | 0.00 | 0.00 | 0.00 | 11 | 993.4 |
| 20260502062323 | 47 | 217 | 5.2 | 18.2 | 0.00 | 0.00 | 0.00 | 11 | 993.3 |
| 20260502061823 | 47 | 213 | 7.0 | 18.2 | 0.00 | 0.00 | 0.00 | 11 | 993.4 |
| 20260502061803 | 47 | 213 | 7.0 | 18.2 | 0.00 | 0.00 | 0.00 | 11 | 993.4 |
| 20260502061323 | 47 | 216 | 5.2 | 13.0 | 0.00 | 0.00 | 0.00 | 11 | 993.4 |
| 20260502060903 | 47 | 220 | 2.6 | 13.0 | 0.00 | 0.00 | 0.00 | 11 | 993.5 |
| 20260502060823 | 47 | 215 | 3.5 | 13.0 | 0.00 | 0.00 | 0.00 | 11 | 993.5 |
| 20260502060713 | 47 | 221 | 5.2 | 15.6 | 0.00 | 0.00 | 0.00 | 11 | 993.4 |
| 20260502060322 | 47 | 218 | 5.2 | 15.6 | 0.00 | 0.00 | 0.00 | 11 | 993.3 |
| 20260502060003 | 47 | 221 | 3.5 | 15.6 | 0.00 | 0.00 | 0.00 | 11 | 993.2 |
| 20260502055822 | 47 | 222 | 5.2 | 15.6 | 0.00 | 0.00 | 0.00 | 11 | 993.3 |
| 20260502055403 | 47 | 224 | 4.3 | 14.8 | 0.00 | 0.00 | 0.00 | 11 | 993.4 |
| 20260502055322 | 47 | 226 | 5.2 | 14.8 | 0.00 | 0.00 | 0.00 | 11 | 993.5 |
| 20260502054822 | 47 | 223 | 9.6 | 14.8 | 0.00 | 0.00 | 0.00 | 11 | 993.6 |
| 20260502054712 | 47 | 229 | 7.8 | 16.5 | 0.00 | 0.00 | 0.00 | 11 | 993.4 |
| 20260502054503 | 47 | 222 | 7.0 | 18.2 | 0.00 | 0.00 | 0.00 | 11 | 993.5 |
| 20260502054322 | 47 | 212 | 1.7 | 18.2 | 0.00 | 0.00 | 0.00 | 11 | 993.5 |
| 20260502053822 | 47 | 216 | 7.0 | 18.2 | 0.00 | 0.00 | 0.00 | 11 | 993.7 |
| 20260502053603 | 47 | 222 | 6.1 | 18.2 | 0.00 | 0.00 | 0.00 | 11 | 993.5 |
| 20260502053322 | 47 | 232 | 4.3 | 13.0 | 0.00 | 0.00 | 0.00 | 11 | 993.6 |
| 20260502052822 | 47 | 215 | 4.3 | 13.0 | 0.00 | 0.00 | 0.00 | 11 | 993.6 |
| 20260502052712 | 47 | 229 | 7.0 | 13.0 | 0.00 | 0.00 | 0.00 | 11 | 993.6 |
| 20260502052703 | 47 | 229 | 7.0 | 13.0 | 0.00 | 0.00 | 0.00 | 11 | 993.6 |
| 20260502052323 | 47 | 233 | 6.1 | 13.0 | 0.00 | 0.00 | 0.00 | 11 | 993.6 |
| 20260502051823 | 47 | 233 | 3.5 | 13.0 | 0.00 | 0.00 | 0.00 | 11 | 993.7 |
| 20260502051803 | 47 | 233 | 7.0 | 13.0 | 0.00 | 0.00 | 0.00 | 11 | 993.8 |
| 20260502051323 | 47 | 206 | 7.0 | 13.0 | 0.00 | 0.00 | 0.00 | 11 | 993.7 |
| 20260502050903 | 47 | 208 | 4.3 | 9.6 | 0.00 | 0.00 | 0.00 | 11 | 993.8 |
| 20260502050823 | 47 | 208 | 3.5 | 9.6 | 0.00 | 0.00 | 0.00 | 11 | 993.8 |
| 20260502050711 | 47 | 207 | 3.5 | 10.4 | 0.00 | 0.00 | 0.00 | 11 | 993.8 |
| 20260502050323 | 47 | 208 | 3.5 | 10.4 | 0.00 | 0.00 | 0.00 | 11 | 993.9 |
| 20260502050003 | 47 | 207 | 3.5 | 12.2 | 0.00 | 0.00 | 0.00 | 11 | 993.8 |
| 20260502045823 | 46 | 206 | 7.0 | 12.2 | 0.00 | 0.00 | 0.00 | 11 | 993.9 |
| 20260502045403 | 46 | 204 | 3.5 | 12.2 | 0.00 | 0.00 | 0.00 | 11 | 993.8 |
| 20260502045323 | 46 | 210 | 3.5 | 12.2 | 0.00 | 0.00 | 0.00 | 11 | 993.9 |
| 20260502044823 | 46 | 223 | 3.5 | 15.6 | 0.00 | 0.00 | 0.00 | 11 | 993.8 |
| 20260502044711 | 46 | 226 | 5.2 | 15.6 | 0.00 | 0.00 | 0.00 | 11 | 993.9 |
| 20260502044503 | 46 | 228 | 7.0 | 15.6 | 0.00 | 0.00 | 0.00 | 11 | 993.9 |
| 20260502044323 | 46 | 222 | 3.5 | 15.6 | 0.00 | 0.00 | 0.00 | 11 | 994.0 |
| 20260502043823 | 46 | 206 | 3.5 | 11.3 | 0.00 | 0.00 | 0.00 | 11 | 993.9 |
| 20260502043603 | 46 | 207 | 7.0 | 11.3 | 0.00 | 0.00 | 0.00 | 11 | 994.1 |
| 20260502043323 | 46 | 210 | 4.3 | 9.6 | 0.00 | 0.00 | 0.00 | 11 | 994.2 |
| 20260502042823 | 46 | 219 | 2.6 | 13.9 | 0.00 | 0.00 | 0.00 | 11 | 994.1 |
| 20260502042711 | 46 | 215 | 3.5 | 13.9 | 0.00 | 0.00 | 0.00 | 11 | 994.2 |
| 20260502042703 | 46 | 215 | 3.5 | 13.9 | 0.00 | 0.00 | 0.00 | 11 | 994.2 |
| 20260502042323 | 46 | 219 | 6.1 | 13.9 | 0.00 | 0.00 | 0.00 | 11 | 994.1 |
| 20260502041823 | 46 | 222 | 1.7 | 9.6 | 0.00 | 0.00 | 0.00 | 11 | 994.3 |
| 20260502041803 | 46 | 223 | 3.5 | 9.6 | 0.00 | 0.00 | 0.00 | 11 | 994.2 |
| 20260502041323 | 46 | 221 | 4.3 | 14.8 | 0.00 | 0.00 | 0.00 | 11 | 994.4 |
| 20260502040903 | 46 | 232 | 2.6 | 14.8 | 0.00 | 0.00 | 0.00 | 11 | 994.5 |
| 20260502040823 | 46 | 232 | 5.2 | 14.8 | 0.00 | 0.00 | 0.00 | 11 | 994.4 |
| 20260502040251 | 46 | 227 | 6.1 | 10.4 | 0.00 | 0.00 | 0.00 | 11 | 994.5 |
| 20260502040003 | 46 | 223 | 3.5 | 10.4 | 0.00 | 0.00 | 0.00 | 11 | 994.4 |
| 20260502035751 | 46 | 225 | 7.0 | 10.4 | 0.00 | 0.00 | 0.00 | 11 | 994.6 |
| 20260502035403 | 46 | 223 | 3.5 | 10.4 | 0.00 | 0.00 | 0.00 | 11 | 994.5 |
| 20260502035251 | 46 | 223 | 2.6 | 10.4 | 0.00 | 0.00 | 0.00 | 11 | 994.5 |
| 20260502034751 | 46 | 220 | 7.0 | 13.0 | 0.00 | 0.00 | 0.00 | 11 | 994.6 |
| 20260502034711 | 46 | 220 | 7.0 | 13.0 | 0.00 | 0.00 | 0.00 | 11 | 994.6 |
| 20260502034503 | 46 | 217 | 5.2 | 13.0 | 0.00 | 0.00 | 0.00 | 11 | 994.6 |
| 20260502034251 | 46 | 217 | 3.5 | 14.8 | 0.00 | 0.00 | 0.00 | 11 | 994.5 |
| 20260502033751 | 46 | 211 | 7.0 | 14.8 | 0.00 | 0.00 | 0.00 | 11 | 994.7 |
| 20260502033603 | 46 | 212 | 4.3 | 14.8 | 0.00 | 0.00 | 0.00 | 11 | 994.6 |
| 20260502033251 | 46 | 210 | 4.3 | 14.8 | 0.00 | 0.00 | 0.00 | 11 | 994.6 |
| 20260502032751 | 46 | 222 | 6.1 | 12.2 | 0.00 | 0.00 | 0.00 | 11 | 994.8 |
| 20260502032711 | 46 | 222 | 6.1 | 12.2 | 0.00 | 0.00 | 0.00 | 11 | 994.8 |
| 20260502032703 | 46 | 222 | 6.1 | 12.2 | 0.00 | 0.00 | 0.00 | 11 | 994.8 |
| 20260502032251 | 46 | 225 | 5.2 | 11.3 | 0.00 | 0.00 | 0.00 | 11 | 994.9 |
| 20260502031803 | 46 | 230 | 3.5 | 8.7 | 0.00 | 0.00 | 0.00 | 11 | 994.9 |
| 20260502031751 | 46 | 221 | 3.5 | 8.7 | 0.00 | 0.00 | 0.00 | 11 | 995.0 |
| 20260502031250 | 46 | 213 | 3.5 | 9.6 | 0.00 | 0.00 | 0.00 | 11 | 995.0 |
| 20260502030903 | 46 | 212 | 4.3 | 9.6 | 0.00 | 0.00 | 0.00 | 11 | 995.0 |
| 20260502030751 | 46 | 213 | 3.5 | 9.6 | 0.00 | 0.00 | 0.00 | 11 | 995.1 |
| 20260502030711 | 46 | 213 | 3.5 | 9.6 | 0.00 | 0.00 | 0.00 | 11 | 995.1 |
| 20260502030251 | 46 | 217 | 3.5 | 9.6 | 0.00 | 0.00 | 0.00 | 11 | 995.1 |
| 20260502030003 | 46 | 220 | 3.5 | 9.6 | 0.00 | 0.00 | 0.00 | 11 | 995.1 |
| 20260502025751 | 46 | 222 | 3.5 | 11.3 | 0.00 | 0.00 | 0.00 | 11 | 995.2 |
| 20260502025403 | 46 | 224 | 5.2 | 11.3 | 0.00 | 0.00 | 0.00 | 11 | 995.2 |
| 20260502025251 | 46 | 223 | 3.5 | 11.3 | 0.00 | 0.00 | 0.00 | 11 | 995.1 |
| 20260502024751 | 46 | 220 | 3.5 | 10.4 | 0.00 | 0.00 | 0.00 | 11 | 995.1 |
| 20260502024711 | 46 | 220 | 3.5 | 10.4 | 0.00 | 0.00 | 0.00 | 11 | 995.1 |
| 20260502024504 | 46 | 222 | 1.7 | 10.4 | 0.00 | 0.00 | 0.00 | 11 | 995.3 |
| 20260502024251 | 46 | 212 | 7.0 | 10.4 | 0.00 | 0.00 | 0.00 | 11 | 995.3 |
| 20260502023751 | 46 | 218 | 1.7 | 8.7 | 0.00 | 0.00 | 0.00 | 11 | 995.3 |
| 20260502023603 | 46 | 218 | 2.6 | 8.7 | 0.00 | 0.00 | 0.00 | 11 | 995.4 |
| 20260502023251 | 46 | 243 | 3.5 | 7.0 | 0.00 | 0.00 | 0.00 | 11 | 995.4 |
| 20260502022711 | 47 | 233 | 1.7 | 9.6 | 0.00 | 0.00 | 0.00 | 11 | 995.6 |
| 20260502022703 | 47 | 233 | 1.7 | 9.6 | 0.00 | 0.00 | 0.00 | 11 | 995.6 |
| 20260502022637 | 47 | 233 | 3.5 | 10.4 | 0.00 | 0.00 | 0.00 | 11 | 995.5 |
| 20260502022137 | 47 | 228 | 4.3 | 10.4 | 0.00 | 0.00 | 0.00 | 11 | 995.6 |
| 20260502021803 | 47 | 230 | 3.5 | 10.4 | 0.00 | 0.00 | 0.00 | 11 | 995.5 |
| 20260502021637 | 47 | 224 | 3.5 | 10.4 | 0.00 | 0.00 | 0.00 | 11 | 995.5 |